Year,Month,Day,Hour,Minute,Value (Times are PST for barometer in hPa)
2008,02,09,00,11,995.29
2008,02,09,00,12,995.29
2008,02,09,00,13,995.29
2008,02,09,00,14,995.29
2008,02,09,00,15,995.29
2008,02,09,00,16,995.29
2008,02,09,00,17,995.29
2008,02,09,00,18,995.29
2008,02,09,00,19,995.29
2008,02,09,00,20,995.29
2008,02,09,00,21,995.29
2008,02,09,00,22,995.29
2008,02,09,00,23,995.29
2008,02,09,00,24,995.29
2008,02,09,00,25,995.29
2008,02,09,00,26,995.29
2008,02,09,00,27,995.29
2008,02,09,00,28,995.29
2008,02,09,00,29,995.29
2008,02,09,00,30,995.29
2008,02,09,00,31,995.29
2008,02,09,00,32,995.29
2008,02,09,00,33,995.29
2008,02,09,00,34,995.29
2008,02,09,00,35,995.29
2008,02,09,00,36,995.29
2008,02,09,00,37,995.29
2008,02,09,00,38,995.29
2008,02,09,00,39,995.29
2008,02,09,00,40,995.29
2008,02,09,00,41,995.29
2008,02,09,00,42,995.29
2008,02,09,00,43,995.29
2008,02,09,00,44,995.29
2008,02,09,00,45,995.29
2008,02,09,00,46,995.29
2008,02,09,00,47,995.29
2008,02,09,00,48,995.29
2008,02,09,00,49,995.29
2008,02,09,00,50,995.29
2008,02,09,00,51,995.29
2008,02,09,00,52,995.29
2008,02,09,00,53,995.29
2008,02,09,08,28,1039.11
2008,02,09,08,29,1039.11
2008,02,09,08,30,1039.11
2008,02,09,08,31,1039.11
2008,02,09,08,32,1039.11
2008,02,09,08,33,1039.11
2008,02,09,08,34,1039.11
2008,02,09,08,35,1039.11
2008,02,09,08,36,1039.11
2008,02,09,08,37,1039.11
2008,02,09,08,38,1039.11
2008,02,09,08,39,1039.11
2008,02,09,08,40,1039.11
2008,02,09,08,41,1039.11
2008,02,09,08,42,1039.11
2008,02,09,08,43,1039.11
2008,02,09,08,44,1039.11
2008,02,09,08,45,1039.11
2008,02,09,08,46,1039.11
2008,02,09,08,47,1039.11
2008,02,09,08,48,1039.11
2008,02,09,08,49,1039.11
2008,02,09,08,50,1039.11
2008,02,09,08,51,1039.11
2008,02,09,08,52,1039.11
2008,02,09,08,53,1039.11
2008,02,09,08,54,1039.11
2008,02,09,08,55,1039.11
2008,02,09,08,56,1039.11
2008,02,09,08,57,1039.11
2008,02,09,08,58,1039.11
2008,02,09,08,59,1039.11
2008,02,09,09,00,1039.11
2008,02,09,09,01,1039.11
2008,02,09,09,02,1039.11
2008,02,09,09,03,1039.11
2008,02,09,09,04,1039.11
2008,02,09,09,05,1039.11
2008,02,09,09,06,1039.11
2008,02,09,09,07,1039.11
2008,02,09,09,08,1039.11
2008,02,09,09,09,1039.11
2008,02,09,09,10,1039.11
2008,02,09,09,11,1039.11
2008,02,09,09,12,1039.11
2008,02,09,09,13,1039.11
2008,02,09,09,14,1039.11
2008,02,09,09,15,1039.11
2008,02,09,09,16,1039.11
2008,02,09,09,17,1039.11
2008,02,09,09,18,1039.11
2008,02,09,09,19,1032.72
2008,02,09,09,43,1050.36
2008,02,09,09,44,1050.36
2008,02,09,09,45,1050.36
2008,02,09,09,46,1050.36
2008,02,09,09,47,1050.36
2008,02,09,09,48,1050.36
2008,02,09,09,49,1050.36
2008,02,09,09,50,1050.36
2008,02,09,09,51,1050.36
2008,02,09,09,52,1050.46
2008,02,09,09,53,1052.08
2008,02,09,09,54,1052.08
2008,02,09,09,55,1052.08
2008,02,09,09,56,1052.08
2008,02,09,09,57,1052.08
2008,02,09,09,58,1052.08
2008,02,09,09,59,1052.08
2008,02,09,10,00,1052.08
2008,02,09,10,01,1052.08
2008,02,09,10,02,1052.08
2008,02,09,10,03,1052.08
2008,02,09,10,04,1052.08
2008,02,09,10,05,1052.08
2008,02,09,10,06,1052.08
2008,02,09,10,07,1052.08
2008,02,09,10,08,1052.08
2008,02,09,10,09,1052.08
2008,02,09,10,10,1052.08
2008,02,09,10,11,1052.08
2008,02,09,10,12,1052.08
2008,02,09,10,13,1052.08
2008,02,09,10,14,1052.08
2008,02,09,10,15,1052.08
2008,02,09,10,16,1052.08
2008,02,09,10,17,1052.08
2008,02,09,10,18,1052.08
2008,02,09,10,19,1052.08
2008,02,09,10,20,1044.13
2008,02,09,10,34,1058.55
2008,02,09,10,35,1058.55
2008,02,09,10,36,1055.37
2008,02,09,10,37,998.21
2008,02,09,10,38,998.21
2008,02,09,10,39,998.21
2008,02,09,10,40,998.21
2008,02,09,10,41,998.21
2008,02,09,10,42,998.21
2008,02,09,10,43,998.21
2008,02,09,10,44,998.21
2008,02,09,10,45,998.21
2008,02,09,10,46,998.21
2008,02,09,10,47,998.21
2008,02,09,10,48,998.21
2008,02,09,10,49,998.21
2008,02,09,10,50,998.21
2008,02,09,10,51,998.21
2008,02,09,10,52,998.21
2008,02,09,10,53,998.21
2008,02,09,10,54,998.21
2008,02,09,10,55,998.21
2008,02,09,10,56,998.21
2008,02,09,10,57,998.21
2008,02,09,10,58,998.21
2008,02,09,10,59,998.21
2008,02,09,11,00,998.21
2008,02,09,11,01,998.21
2008,02,09,11,02,998.21
2008,02,09,11,03,998.21
2008,02,09,11,04,998.21
2008,02,09,11,05,998.21
2008,02,09,11,06,998.21
2008,02,09,11,07,998.21
2008,02,09,11,08,998.21
2008,02,09,11,09,998.21
2008,02,09,11,10,998.21
2008,02,09,11,11,998.21
2008,02,09,11,12,998.21
2008,02,09,11,13,998.21
2008,02,09,11,14,998.21
2008,02,09,11,15,998.21
2008,02,09,11,16,998.21
2008,02,09,11,17,998.21
2008,02,09,11,18,998.21
2008,02,09,11,19,998.21
2008,02,09,11,20,998.21
2008,02,09,11,21,998.21
2008,02,09,11,22,998.21
2008,02,09,11,23,998.21
2008,02,09,11,24,998.21
2008,02,09,11,57,1050.97
2008,02,09,11,58,1050.97
2008,02,09,11,59,1050.97
2008,02,09,12,00,1050.97
2008,02,09,12,01,1050.97
2008,02,09,12,02,1050.97
2008,02,09,12,03,1050.97
2008,02,09,12,04,1050.97
2008,02,09,12,05,1050.97
2008,02,09,12,06,1050.97
2008,02,09,12,07,1050.97
2008,02,09,19,53,1033.02
2008,02,09,19,54,1033.02
2008,02,09,19,55,1033.02
2008,02,09,19,56,1033.02
2008,02,09,19,57,1033.02
2008,02,09,19,58,1033.02
2008,02,09,19,59,1033.02
2008,02,09,20,00,1033.02
2008,02,09,20,01,1033.02
2008,02,09,20,02,1033.02
2008,02,09,20,03,1033.02
2008,02,09,20,04,1033.02
2008,02,09,20,05,1033.02
2008,02,09,20,06,1033.02
2008,02,09,20,07,1033.02
2008,02,09,20,08,1033.02
2008,02,09,20,09,1033.02
2008,02,09,20,10,1033.02
2008,02,09,20,11,1033.02
2008,02,09,20,12,1033.02
2008,02,09,20,13,1033.02
2008,02,09,20,14,1033.02
2008,02,09,20,15,1033.02
2008,02,09,20,16,1033.02
2008,02,09,20,17,1033.02
2008,02,09,20,18,1033.02
2008,02,09,20,19,1033.02
2008,02,09,20,20,1033.02
2008,02,09,20,21,997.36
2008,02,09,20,22,997.36
2008,02,09,20,23,997.36
2008,02,09,20,24,997.36
2008,02,09,20,25,997.36
2008,02,09,20,26,997.36
2008,02,09,20,27,997.36
2008,02,09,20,28,997.36
2008,02,09,20,29,997.36
2008,02,09,20,30,997.36
2008,02,09,20,31,997.36
2008,02,09,20,32,997.36
2008,02,09,20,33,997.36
2008,02,09,20,34,997.36
2008,02,09,20,35,997.36
2008,02,09,20,36,997.36
2008,02,09,20,37,997.36
2008,02,09,20,38,997.36
2008,02,09,20,39,997.36
2008,02,09,20,40,997.36
2008,02,09,20,41,997.36
2008,02,09,20,42,997.36
2008,02,09,20,43,997.36
2008,02,09,20,44,997.36
2008,02,09,20,45,997.36
2008,02,09,20,46,997.36
2008,02,09,20,47,997.36
2008,02,09,20,48,997.36
2008,02,09,20,49,997.36
2008,02,09,20,50,997.36
2008,02,09,20,51,997.36
2008,02,09,20,52,997.36
2008,02,09,20,53,997.36
2008,02,09,20,54,997.36
2008,02,09,20,55,997.36
2008,02,09,20,56,997.36
2008,02,09,20,57,997.36
2008,02,09,20,58,997.36
2008,02,09,20,59,997.36
2008,02,09,21,00,997.36
2008,02,09,21,01,997.36
2008,02,09,21,02,997.36
2008,02,09,21,03,997.36
2008,02,09,21,04,997.36
2008,02,09,21,05,997.36
2008,02,09,21,06,997.36
2008,02,09,21,07,997.36
2008,02,09,21,08,997.36
2008,02,09,21,09,997.36
2008,02,09,21,10,997.36
2008,02,09,21,11,997.36
2008,02,09,21,12,997.36
2008,02,09,21,13,997.36
2008,02,09,21,14,997.36
2008,02,09,21,15,997.36
2008,02,09,21,16,997.36
2008,02,09,21,17,997.36
2008,02,09,21,18,997.36
2008,02,09,21,19,997.36
2008,02,09,21,20,997.36
2008,02,09,21,21,997.36
2008,02,09,21,22,997.36
2008,02,09,21,23,997.36
2008,02,09,21,24,997.36
2008,02,09,21,25,997.36
2008,02,09,21,26,997.36
2008,02,09,21,27,997.36
2008,02,09,21,28,997.36
2008,02,09,21,29,997.36
2008,02,09,21,30,997.36
2008,02,09,21,31,997.36
2008,02,09,21,32,997.36
2008,02,09,21,33,997.36
2008,02,09,21,34,997.36
2008,02,09,21,35,997.36
2008,02,09,21,36,997.36
2008,02,09,21,37,997.36
2008,02,09,21,38,997.36
2008,02,09,21,39,997.36
2008,02,09,21,40,997.36
2008,02,09,21,41,997.36
2008,02,09,21,42,997.36
2008,02,09,21,43,997.36
2008,02,09,21,44,997.36
2008,02,09,21,45,997.36
2008,02,09,21,46,997.36
2008,02,09,21,47,997.36
2008,02,09,21,48,997.36
2008,02,09,21,49,997.36
2008,02,09,21,50,997.36
2008,02,09,21,51,997.36
2008,02,09,21,52,997.36
2008,02,09,21,53,997.36
2008,02,09,21,54,997.36
2008,02,09,21,55,997.36
2008,02,09,21,56,997.36
2008,02,09,21,57,997.36
2008,02,09,21,58,997.36
2008,02,09,21,59,997.36
2008,02,09,22,00,997.36
2008,02,09,22,01,997.36
2008,02,09,22,02,997.36
2008,02,09,22,03,997.36
2008,02,09,22,04,997.36
2008,02,09,22,05,997.36
2008,02,09,22,06,997.36
2008,02,09,22,07,997.36
2008,02,09,22,08,997.36
2008,02,09,22,09,997.36
2008,02,09,22,10,997.36
2008,02,09,22,11,997.36
2008,02,09,22,12,997.36
2008,02,09,22,13,997.36
2008,02,09,22,14,997.36
2008,02,09,22,15,997.36
2008,02,09,22,16,997.36
2008,02,09,22,17,997.36
2008,02,09,22,44,1033.90
2008,02,09,22,45,1033.90
2008,02,09,22,46,1033.90
